Location: Saint Louis
(38.6272°N, 90.1978°W)
Time: 11:43:43
(UTC-05:00)

Tiangong 1 - Visible Passes

Search period start: 25 October 2014 00:00
Search period end: 03 November 2014 23:00
Orbit: 351 x 361 km, 42.8° (Epoch: 25 October)

Date Brightness Start Highest point End Pass type
(mag) Time Alt. Az. Time Alt. Az. Time Alt. Az.
25 Oct 3.0 20:03:31 10° W 20:05:15 27° WNW 20:05:15 27° WNW visible
26 Oct 1.2 18:54:22 10° W 18:57:18 58° NNW 18:59:30 16° ENE visible
26 Oct 4.5 20:30:55 10° WNW 20:31:07 11° WNW 20:31:07 11° WNW visible
27 Oct 1.9 19:21:39 10° WNW 19:24:28 37° N 19:25:12 31° NNE visible
28 Oct 2.5 19:48:46 10° WNW 19:50:47 29° NNW 19:50:47 29° NNW visible
29 Oct 2.0 18:39:17 10° WNW 18:42:04 35° N 18:44:38 11° ENE visible
29 Oct 4.0 20:15:33 10° WNW 20:16:14 15° WNW 20:16:14 15° WNW visible
30 Oct 1.8 19:06:06 10° WNW 19:08:53 36° N 19:10:00 26° NE visible
31 Oct 1.3 19:32:36 10° WNW 19:35:16 52° N 19:35:16 52° N visible
01 Nov 1.7 18:22:56 10° WNW 18:25:45 38° N 18:28:33 10° E visible
01 Nov 3.1 19:58:57 10° WNW 20:00:30 27° W 20:00:30 27° W visible
02 Nov 0.9 17:49:09 10° WNW 17:52:06 64° NNE 17:54:07 18° E visible
02 Nov 4.6 19:25:32 10° W 19:25:42 11° W 19:25:42 11° W visible
03 Nov 1.5 18:15:17 10° WNW 18:18:10 51° SSW 18:19:20 29° SE visible
